Flag for Sweden Weather past 2 weeks in Malmö, Sweden

Now
73 °F

Sunny.


Feels Like: 76 °F
Forecast: 66 / 75 °F
Wind: 9 mph from North

Location: Malmo / Sturup

Current Time: Jul 29, 2014 at 9:41:31 PM

Latest Report: Jul 29, 2014 at 9:20 PM


Visibility: 10 mi

Pressure: 29.80 "Hg

Humidity: 65%

Dew point: 61 °F

Location of MalmöLocation

Historic Weather in Malmö — Graph

°F

Malmö temperature yesterday

Maximum temperature yesterday: 84 °F (at 11:50 AM)
Minimum temperature yesterday: 59 °F (at 3:50 AM)
Average temperature yesterday: 73 °F

Past Weeks' High & Low Weather Summary

 TemperatureHumidityPressure
High84 °F (Jul 28, 11:50 AM)100% (Jul 15, 12:20 AM)30.24 "Hg (Jul 15, 12:20 AM)
Low50 °F (Jul 17, 2:20 AM)36% (Jul 23, 12:20 PM)29.74 "Hg (Jul 14, 8:20 PM)
Average69 °F71%30.06 "Hg
* Reported Jul 14 8:20 PM — Jul 29 8:20 PM, Malmö, Weather by CustomWeather, © 2014

Note: Actual official high and low records may vary slightly from our data, if they occured in-between our weather recording intervals... More about our weather records

Advertising

Malmö weather history for previous 24 hours

 ConditionsComfort  
Time TempWeatherWind HumidityBarometerVisibility
8:20 PM
Jul 29
77 °FSunny.9 mph61%29.77 "Hg10 mi
7:50 PM79 °FSunny.8 mph58%29.77 "Hg10 mi
7:20 PM79 °FSunny.9 mph61%29.77 "Hg10 mi
6:50 PM79 °FPassing clouds.9 mph48%29.77 "HgN/A
6:20 PM77 °FThunderstorms. Partly sunny.12 mph54%29.80 "HgN/A
5:50 PM79 °FScattered clouds.7 mph58%29.77 "HgN/A
5:20 PM81 °FPassing clouds.9 mph58%29.77 "HgN/A
4:50 PM82 °FPassing clouds.9 mph58%29.80 "HgN/A
4:20 PM81 °FBroken clouds.10 mph62%29.80 "HgN/A
3:50 PM82 °FScattered clouds.7 mph51%29.80 "HgN/A
3:20 PM81 °FPartly sunny.8 mph62%29.80 "HgN/A
2:50 PM84 °FPassing clouds.5 mph48%29.83 "HgN/A
2:20 PM84 °FScattered clouds.5 mph48%29.83 "HgN/A
1:50 PM84 °FScattered clouds.3 mph45%29.83 "HgN/A
1:20 PM82 °FPassing clouds.3 mph48%29.83 "HgN/A
12:50 PM82 °FScattered clouds.5 mph51%29.86 "HgN/A
12:20 PM82 °FSunny.3 mph51%29.86 "Hg10 mi
11:50 AM82 °FPassing clouds.5 mph51%29.86 "HgN/A
11:20 AM81 °FPassing clouds.6 mph54%29.86 "HgN/A
10:50 AM79 °FSunny.8 mph58%29.86 "Hg10 mi
10:20 AM77 °FSunny.8 mph65%29.86 "Hg10 mi
9:50 AM75 °FSunny.6 mph69%29.86 "Hg10 mi
9:20 AM73 °FSunny.7 mph74%29.86 "Hg10 mi
8:50 AM72 °FSunny.7 mph78%29.86 "Hg10 mi
8:20 AM70 °FSunny.8 mph83%29.86 "Hg10 mi
7:50 AM66 °FSunny.8 mph88%29.86 "Hg10 mi
7:20 AM66 °FSunny.5 mph88%29.86 "Hg10 mi
6:50 AM63 °FSunny.3 mph94%29.86 "Hg10 mi
6:20 AM63 °FSunny.6 mph94%29.89 "Hg10 mi
5:50 AM61 °FClear.5 mph100%29.89 "Hg10 mi
5:20 AM61 °FClear.5 mph100%29.86 "Hg10 mi
4:50 AM63 °FClear.3 mph94%29.86 "Hg10 mi
4:20 AM63 °FClear.6 mph94%29.89 "Hg10 mi
3:50 AM63 °FClear.3 mph100%29.89 "Hg10 mi
3:20 AM63 °FClear.6 mph94%29.89 "Hg10 mi
2:50 AM63 °FClear.6 mph94%29.89 "Hg10 mi
2:20 AM64 °FClear.5 mph94%29.89 "Hg10 mi
1:50 AM64 °FClear.6 mph94%29.89 "Hg10 mi
1:20 AM64 °FClear.6 mph94%29.89 "Hg10 mi
12:50 AM64 °FClear.6 mph94%29.89 "Hg10 mi
12:20 AM64 °FClear.2 mph94%29.92 "Hg10 mi
11:50 PM
Jul 28
66 °FClear.2 mph88%29.92 "Hg10 mi
11:20 PM68 °FClear.3 mph83%29.92 "Hg10 mi
10:50 PM68 °FClear.5 mph88%29.92 "Hg10 mi
10:20 PM68 °FClear.7 mph83%29.89 "Hg10 mi
9:50 PM70 °FSunny.6 mph83%29.89 "Hg10 mi
9:20 PM72 °FSunny.6 mph78%29.89 "Hg10 mi
Weather by CustomWeather, © 2014

See weather overviewHow to use our weather pages